Regional Weather Roundup
Issued by NWS Newport/Morehead, NC

Current Version | Previous Version | Graphics & Text | Print | Product List | Glossary On
Versions: 1 2 3 4 5 6 7 8 9 10 11 12 13 14 15 16 17 18 19 20 21 22 23 24 25 26 27 28 29 30 31 32 33 34 35 36 37 38 39 40 41 42 43 44 45 46 47 48 49 50
000 ASUS42 KMHX 261113 RWRMHX WEATHER ROUNDUP FOR EASTERN NORTH CAROLINA NATIONAL WEATHER SERVICE NEWPORT/MOREHEAD CITY NC 700 AM EDT TUE SEP 26 2017 NOTE: "FAIR" INDICATES FEW OR NO CLOUDS BELOW 12,000 FEET WITH NO SIGNIFICANT WEATHER AND/OR OBSTRUCTIONS TO VISIBILITY NCZ015>017-031-032-045>047-102-103-261200- NORTH COAST CITY SKY/WX TMP DP RH WIND PRES REMARKS EDENTON CLOUDY 74 72 95 CALM 29.85F FOG ELIZABETH CITY CLOUDY 73 73 100 N20G25 29.86R FOG KITTY HAWK CLOUDY 71 71 100 NE9G23 29.80R FOG MANTEO CLOUDY 73 72 99 NE20G26 29.81R FOG $$ NCZ045>047-081-094-103-104-261200- CENTRAL COAST CITY SKY/WX TMP DP RH WIND PRES REMARKS FRISCO CLOUDY 77 73 87 NE18G32 29.70S $$ NCZ095-097-098-100-101-261200- SOUTHERN COAST CITY SKY/WX TMP DP RH WIND PRES REMARKS BEAUFORT CLOUDY 75 74 96 N22G36 29.75R CEDAR ISLAND NOT AVBL JACKSONVILLE CLOUDY 74 73 97 N15G22 29.80R PINEY ISLAND N/A N/A N/A N/A N25G36 29.75R WILMINGTON CLOUDY 73 70 90 N12 29.82R $$ NCZ011>013-027>030-043-044-078>080-089-090>093-098-261200- COASTAL PLAIN CITY SKY/WX TMP DP RH WIND PRES REMARKS AHOSKIE CLOUDY 69 69 100 N10 29.90R FOG CLINTON CLOUDY 71 71 100 N6 29.88R ELIZABETHTOWN NOT AVBL GOLDSBORO CLOUDY 71 71 100 N10 29.86R GREENVILLE CLOUDY 72 72 100 N12G17 29.88S FOG HAVELOCK CLOUDY 75 74 96 N17 29.79R KENANSVILLE CLOUDY 72 70 94 N10 29.86R FOG KINSTON CLOUDY 72 70 94 N13 29.86S FOG NEW BERN LGT RAIN 73 73 100 N13G18 29.82R FOG RICHLANDS CLOUDY 72 71 97 N7 29.83S ROCKY MOUNT CLOUDY 71 70 96 N12 29.90R WASHINGTON CLOUDY 72 71 95 N13G18 29.83S WHITEVILLE CLOUDY 72 69 92 N3 29.85S $$ AMZ130-135-150-152-154-156-158-170-250-252-270-ANZ085-086-088-633-658-670-261200- MARINE OBSERVATIONS STATION/POSITION TIME TEMP WIND PRES WAVE SWELL AIR SEA DIR/SP/G HT/PER HT/PER (UTC) (F) (DEG/KT/KT) (MB) (FT/S) (FT/S) CHESAPEAKE LIGHT NOT AVBL 64 E VA BEACH 1050 72 69 30/ 21/ 25 1010.1 16/14 13/14 DUCK 1048 73 76 30/ 29/ 32 1009.5 2 E DUCK 1000 76 N/A 10/15 7/15 OREGON INLET 1042 74 75 20/ 22/ 29 1008.0 13E OREGON INLT 1048 75 N/A 16/15 16/15 HATTERAS CG 1048 76 77 20/ 27/ 34 1005.7 DIAMOND BUOY 1050 77 79 10/ 31/ 39 1002.8 19/14 16/14 CAPE LOOKOUT 1100 76 350/ 23/ 31 1006.2 BEAUFORT LAB 1048 76 74 10/ 19/ 25 1006.8 30 SE NEW RVR IN 1008 77 360/ 25/ 33 1005.9 30 SE NEW RVR IN NOT AVBL 27 SE WRIGHTSVLE 1008 76 79 10/ 21/ 31 1007.1 5 SE WRIGHTSVLE 1008 74 78 350/ 14/ 25 1008.8 225 S CAPE HAT 1050 80 81 300/ 29/ 37 997.5 15/ 9 41 SE CHARLESTON 1050 76 81 340/ 14/ 17 1009.8 7/13 5/13 $$

USA.gov is the U.S. government's official web portal to all federal, state and local government web resources and services.